Regional Weather Roundup
Issued by NWS

Home | Current Version | Previous Version | Text Only | Print | Product List | Glossary On
Versions: 1 2 3 4 5 6 7 8 9 10 11 12 13 14 15 16 17 18 19 20 21 22 23 24 25 26 27
000
ASUS46 KSEW 270710
RWRWA

WASHINGTON REGIONAL WEATHER ROUNDUP
NATIONAL WEATHER SERVICE SEATTLE WA
1200 AM PDT THU APR 27 2017

NOTE:"FAIR" INDICATES FEW OR NO CLOUDS BELOW 12,000 FEET WITH NO
SIGNIFICANT WEATHER AND/OR OBSTRUCTIONS TO VISIBILITY.

WAZ507-509-555>559-270800-
SEATTLE, TACOMA, EVERETT, AND VICINITY

CITY           SKY/WX    TMP DP  RH WIND       PRES   REMARKS
EVERETT        CLOUDY    43  41  93 VRB3      29.98R
BOEING FIELD   CLOUDY    47  41  80 S7        30.00R
RENTON         CLOUDY    48  40  73 S8        30.00S
SEATAC AIRPORT CLOUDY    46  39  76 SW14      29.99S
JBLM-MCCHORD   MOCLDY    44  41  87 SW12      30.00S
PUYALLUP         N/A     45  41  87 SW7       30.01S
BREMERTON      NOT AVBL
JBLM-FT LEWIS  PTCLDY    44  38  79 SW5       30.05S
TACOMA NARROWS MOCLDY    45  39  79 SW10      30.00R
$$

WAZ001-503-506-510-514-515-270800-
NORTH INTERIOR

CITY           SKY/WX    TMP DP  RH WIND       PRES   REMARKS
BELLINGHAM     CLOUDY    49  37  63 VRB5      29.93R
FRIDAY HARBOR  CLEAR     46  39  76 VRB6      29.95R
EASTSOUND      PTCLDY    46  37  71 SW8       29.93R
PORT ANGELES   CLEAR     44  36  73 W12       29.97S
EDIZ HOOK      FAIR      47  37  68 W14G21    29.97S
PORT TOWNSEND  CLOUDY    41  41 100 CALM      29.99R
NAS WHIDBEY    MOCLDY    48  37  65 W21       30.00R
ARLINGTON      CLOUDY    45  36  70 CALM      30.00S
BURLINGTON     CLOUDY    46  39  76 W7        29.95S
$$

WAZ020-022-039-040-504-511-512-270800-
SOUTHWEST INTERIOR

CITY           SKY/WX    TMP DP  RH WIND       PRES   REMARKS
SHELTON        CLEAR     43  39  86 SW9       29.99R
OLYMPIA          N/A     43  41  93 S12       30.03R
CHEHALIS       FAIR      43  41  93 S3        30.05R
KELSO          CLOUDY    45  42  89 CALM      30.10S
VANCOUVER      PTCLDY    47  41  80 W6        30.10R
SCAPPOOSE, OR  CLEAR     42  38  85 CALM      30.09S
PORTLAND, OR   MOCLDY    45  40  82 W7        30.11R
$$

WAZ021-516-517-270800-
WASHINGTON COAST

CITY           SKY/WX    TMP DP  RH WIND       PRES   REMARKS
FORKS          CLOUDY    43  40  89 NW3       30.01R
HOQUIAM        PTCLDY    46  42  86 W6        30.04R
ASTORIA, OR    PTCLDY    45  39  79 W8        30.08S
$$

WAZ019-023-024-040-567>569-270800-
CASCADE MOUNTAINS AND COLUMBIA GORGE

CITY           SKY/WX    TMP DP  RH WIND       PRES   REMARKS
STAMPEDE PASS  SNOW      30  30 100 W14G28    29.84S VSB 1/2 WCI  19
TROUTDALE, OR  MOCLDY    47  42  83 W7        30.10S
THE DALLES, OR CLOUDY    49  37  63 W26G35    29.97S
$$

WAZ026-027-041>044-520-521-270800-
EAST SLOPES

CITY           SKY/WX    TMP DP  RH WIND       PRES   REMARKS
OMAK           PTCLDY    45  24  43 NW9       29.74R
WENATCHEE      PTCLDY    46  30  53 NW18      29.79R
ELLENSBURG     PTCLDY    42  31  64 NW22G31   29.85S
YAKIMA         CLEAR     50  29  44 W15G29    29.87R
SUNNYSIDE ARPT SUNNY     40  32  73 CALM      29.88R
$$

WAZ028-034-035-270800-
COLUMBIA BASIN

CITY           SKY/WX    TMP DP  RH WIND       PRES   REMARKS
EPHRATA        PTCLDY    44  28  53 SW12      29.79R
MOSES LAKE     PTCLDY    46  30  53 SW12      29.81R
PASCO          CLEAR     48  34  58 SW15      29.88R
HERMISTON, OR  CLOUDY    49  39  68 SW21G29   29.91R
$$

WAZ036>038-270800-
NORTHEAST WASHINGTON

CITY           SKY/WX    TMP DP  RH WIND       PRES   REMARKS
SPOKANE GEIGER PTCLDY    42  33  70 SW14      29.72S
SPOKANE FELTS  PTCLDY    41  40  96 NE3       29.73S
FAIRCHILD AFB  MOCLDY    39  32  75 SW12      29.72R
COEURDALENE,ID CLOUDY    41  39  93 SW3       29.73R
DEER PARK      CLOUDY    38  36  92 CALM      29.72R
$$

WAZ029>033-270800-
SOUTHEAST WASHINGTON

CITY           SKY/WX    TMP DP  RH WIND       PRES   REMARKS
PULLMAN        PTCLDY    41  35  79 SW18G25   29.81R
LEWISTON, ID   CLOUDY    47  39  74 CALM      29.83R
WALLA WALLA    CLOUDY    47  38  71 SW13      29.90R
PENDLETON, OR  LGT RAIN  44  37  76 W25G33    29.89R
$$




USA.gov is the U.S. government's official web portal to all federal, state and local government web resources and services.